Weather History for Henderson, NV

Change the Weather History Date:

Monday, May 6, 2013

  Actual Average (KLAS) Record (KLAS)
Temperature  
Mean Temperature 66 °F 74 °F  
Max Temperature 73 °F 85 °F 103 °F (1947)
Min Temperature 59 °F 63 °F 43 °F (1964)
Degree Days  
Heating Degree Days 0 0  
Month to date heating degree days 4  
Since 1 July heating degree days 1947  
Cooling Degree Days 1 10  
Month to date cooling degree days 53  
Year to date cooling degree days 213  
Growing Degree Days 16 (Base 50)    
Moisture  
Dew Point 36 °F    
Average Humidity 32    
Maximum Humidity 50    
Minimum Humidity 22    
Precipitation  
Precipitation 0.02 in 0.00 in 0.59 in (1969)
Month to date precipitation 0.02  
Year to date precipitation 1.91  
Snow  
Snow 0.00 in 0.00 in 0.00 in ()
Month to date snowfall 0.0  
Since 1 July snowfall 0.3  
Snow Depth -    
Sea Level Pressure  
Sea Level Pressure 29.82 in    
Wind  
Wind Speed 12 mph (SSW)    
Max Wind Speed 28 mph    
Max Gust Speed 36 mph    
Visibility 10 miles    
Events Rain    
T = Trace of Precipitation, MM = Missing Value Source: NWS Daily Summary

Daily Weather History Graph

Daily Weather History Graph

Search for Another Location

Airport:

Trip Planner

Search our weather history database for the weather conditions in past years. The results will help you decide how hot, cold, wet, or windy it might be!

Date:

Astronomy

May. 06, 2013 Rise Set
Actual Time 5:42 AM PDT 7:32 PM PDT
Civil Twilight 5:14 AM PDT 8:00 PM PDT
Nautical Twilight 4:41 AM PDT 8:33 PM PDT
Astronomical Twilight 4:05 AM PDT 9:09 PM PDT
Moon 3:40 AM PDT (5/6) 4:41 PM PDT (5/6)
Length of Visible Light 14h 45m
Length of Day
13h 49m
Waning Crescent, 10% of the Moon is Illuminated
May 6
Waning Crescent
May 9
New
May 17
First Quarter
May 24
Full
May 31
Last Quarter

Hourly Weather History & Observations

Time (PDT) Temp. Dew Point Humidity Pressure Visibility Wind Dir Wind Speed Gust Speed Precip Events Conditions
12:56 AM 64.9 °F 29.1 °F 26% 29.77 in 10.0 mi South 6.9 mph - N/A   Mostly Cloudy
1:56 AM 61.9 °F 29.1 °F 29% 29.76 in 10.0 mi SW 5.8 mph - N/A   Clear
2:56 AM 61.9 °F 31.1 °F 31% 29.77 in 10.0 mi South 8.1 mph - N/A   Scattered Clouds
3:56 AM 61.9 °F 32.0 °F 33% 29.78 in 10.0 mi South 12.7 mph - N/A   Clear
4:56 AM 59.9 °F 34.9 °F 39% 29.78 in 10.0 mi SSW 17.3 mph - N/A   Clear
5:56 AM 59.0 °F 34.9 °F 40% 29.82 in 10.0 mi South 11.5 mph - N/A   Mostly Cloudy
6:56 AM 59.9 °F 36.0 °F 41% 29.84 in 10.0 mi South 11.5 mph - N/A   Clear
7:56 AM 61.9 °F 38.8 °F 43% 29.85 in 10.0 mi South 16.1 mph - 0.00 in Rain Heavy Rain
8:56 AM 64.9 °F 36.9 °F 35% 29.86 in 10.0 mi SSW 20.7 mph - N/A   Partly Cloudy
9:56 AM 68.9 °F 36.0 °F 30% 29.87 in 10.0 mi SW 18.4 mph 23.0 mph N/A   Clear
10:56 AM 70.9 °F 36.0 °F 28% 29.87 in 10.0 mi SSW 15.0 mph 21.9 mph N/A   Clear
11:56 AM 72.0 °F 36.0 °F 27% 29.86 in 10.0 mi West 11.5 mph 21.9 mph N/A   Mostly Cloudy
12:56 PM 65.8 °F 46.9 °F 50% 29.86 in 9.0 mi SE 13.8 mph 26.5 mph 0.01 in Rain Light Rain
1:03 PM 66.2 °F 46.4 °F 49% 29.89 in 10.0 mi Calm Calm - 0.01 in Rain Light Rain
1:56 PM 72.9 °F 38.8 °F 29% 29.82 in 10.0 mi SE 6.9 mph 17.3 mph 0.01 in   Scattered Clouds
2:56 PM 73.9 °F 34.0 °F 23% 29.80 in 10.0 mi WSW 16.1 mph - N/A   Mostly Cloudy
3:23 PM 73.4 °F 32.0 °F 22% 29.83 in 10.0 mi SSW 27.6 mph 33.4 mph N/A   Mostly Cloudy
3:56 PM 72.9 °F 34.9 °F 25% 29.80 in 10.0 mi South 26.5 mph 33.4 mph N/A   Partly Cloudy
4:56 PM 72.0 °F 34.0 °F 25% 29.81 in 10.0 mi SW 17.3 mph 35.7 mph 0.00 in Rain Heavy Rain
5:56 PM 72.0 °F 34.9 °F 26% 29.79 in 10.0 mi SSW 5.8 mph - 0.00 in   Clear
6:56 PM 72.9 °F 32.9 °F 23% 29.78 in 10.0 mi South 20.7 mph 26.5 mph N/A   Mostly Cloudy
7:03 PM 71.6 °F 35.6 °F 27% 29.83 in 10.0 mi SSE 15.0 mph 26.5 mph N/A   Overcast
7:56 PM 68.0 °F 37.9 °F 33% 29.81 in 10.0 mi WSW 13.8 mph - 0.00 in Rain Light Rain
9:56 PM 64.9 °F 36.0 °F 34% 29.84 in 10.0 mi SSW 12.7 mph - 0.00 in Rain Light Rain
11:56 PM 59.9 °F 37.9 °F 44% 29.87 in 10.0 mi South 5.8 mph - N/A   Clear